TimeEST,TemperatureF,Dew PointF,Humidity,Sea Level PressureIn,VisibilityMPH,Wind Direction,Wind SpeedMPH,Gust SpeedMPH,PrecipitationIn,Events,Conditions,WindDirDegrees,DateUTC
12:14 AM,27.7,26.6,96,29.74,3.0,Calm,Calm,-,N/A,,Clear,0,2013-02-14 05:14:00
12:35 AM,30.2,29.3,96,29.74,4.0,SSW,3.5,-,N/A,,Mostly Cloudy,200,2013-02-14 05:35:00
12:54 AM,29.8,28.8,96,29.74,3.0,Calm,Calm,-,N/A,,Overcast,0,2013-02-14 05:54:00
1:15 AM,31.1,30.2,96,29.74,3.0,South,3.5,-,N/A,,Overcast,190,2013-02-14 06:15:00
1:35 AM,31.6,30.6,96,29.74,3.0,Calm,Calm,-,N/A,,Overcast,0,2013-02-14 06:35:00
1:55 AM,32.0,30.9,96,29.74,4.0,Calm,Calm,-,N/A,,Mostly Cloudy,0,2013-02-14 06:55:00
2:15 AM,32.5,31.6,96,29.74,4.0,SSW,5.8,-,N/A,,Overcast,210,2013-02-14 07:15:00
2:35 AM,33.1,31.8,95,29.73,4.0,South,4.6,-,N/A,,Scattered Clouds,190,2013-02-14 07:35:00
2:55 AM,32.0,30.4,94,29.73,4.0,South,3.5,-,N/A,,Mostly Cloudy,190,2013-02-14 07:55:00
3:15 AM,32.2,30.9,95,29.73,4.0,South,3.5,-,N/A,,Overcast,190,2013-02-14 08:15:00
3:35 AM,32.5,30.7,93,29.72,5.0,Calm,Calm,-,N/A,,Scattered Clouds,0,2013-02-14 08:35:00
3:54 AM,32.2,30.2,92,29.72,5.0,South,3.5,-,N/A,,Scattered Clouds,190,2013-02-14 08:54:00
4:15 AM,32.9,30.2,90,29.72,7.0,South,4.6,-,N/A,,Mostly Cloudy,190,2013-02-14 09:15:00
4:35 AM,33.4,30.6,89,29.71,7.0,South,5.8,-,N/A,,Overcast,180,2013-02-14 09:35:00
4:54 AM,33.1,30.7,91,29.71,7.0,South,5.8,-,N/A,,Overcast,180,2013-02-14 09:54:00
5:15 AM,33.1,30.6,90,29.71,7.0,South,5.8,-,N/A,,Overcast,190,2013-02-14 10:15:00
5:35 AM,33.1,30.7,91,29.70,7.0,South,6.9,-,N/A,,Mostly Cloudy,180,2013-02-14 10:35:00
5:55 AM,33.8,30.7,89,29.69,7.0,South,6.9,-,N/A,,Mostly Cloudy,170,2013-02-14 10:55:00
6:15 AM,34.0,30.9,89,29.69,7.0,South,5.8,-,N/A,,Overcast,170,2013-02-14 11:15:00
6:34 AM,34.0,31.1,89,29.68,7.0,SSE,5.8,-,N/A,,Overcast,160,2013-02-14 11:34:00
7:15 AM,34.9,31.8,89,29.67,7.0,South,8.1,-,N/A,,Overcast,170,2013-02-14 12:15:00
7:34 AM,35.4,31.6,86,29.66,10.0,South,6.9,-,N/A,,Overcast,170,2013-02-14 12:34:00
7:55 AM,35.6,31.5,85,29.66,10.0,South,8.1,-,N/A,,Overcast,180,2013-02-14 12:55:00
8:14 AM,35.8,31.1,83,29.65,10.0,South,10.4,-,N/A,,Overcast,170,2013-02-14 13:14:00
8:35 AM,36.5,31.1,81,29.65,10.0,South,11.5,16.1,N/A,,Overcast,170,2013-02-14 13:35:00
8:54 AM,37.0,31.1,79,29.65,10.0,South,10.4,16.1,N/A,,Overcast,190,2013-02-14 13:54:00
9:14 AM,38.1,31.1,76,29.65,10.0,SSW,10.4,19.6,N/A,,Overcast,200,2013-02-14 14:14:00
9:35 AM,38.5,31.3,75,29.65,10.0,SSW,15.0,23.0,N/A,,Mostly Cloudy,210,2013-02-14 14:35:00
9:55 AM,39.2,31.6,74,29.65,10.0,SSW,10.4,20.7,N/A,,Scattered Clouds,210,2013-02-14 14:55:00
10:14 AM,39.6,31.8,74,29.65,10.0,SW,13.8,20.7,N/A,,Scattered Clouds,220,2013-02-14 15:14:00
10:35 AM,40.1,31.8,72,29.65,10.0,SSW,19.6,27.6,N/A,,Scattered Clouds,210,2013-02-14 15:35:00
10:55 AM,39.2,32.0,75,29.65,10.0,SW,17.3,28.8,N/A,,Mostly Cloudy,230,2013-02-14 15:55:00
11:14 AM,39.2,31.8,75,29.65,10.0,SW,17.3,31.1,N/A,,Overcast,230,2013-02-14 16:14:00
11:35 AM,39.4,32.0,75,29.65,10.0,SW,21.9,27.6,N/A,,Overcast,220,2013-02-14 16:35:00
11:55 AM,39.2,32.0,75,29.66,10.0,SW,18.4,25.3,N/A,,Overcast,230,2013-02-14 16:55:00
12:14 PM,38.7,32.2,78,29.66,10.0,SW,12.7,21.9,N/A,,Overcast,230,2013-02-14 17:14:00
12:34 PM,38.5,32.2,78,29.66,10.0,SW,17.3,24.2,N/A,,Overcast,230,2013-02-14 17:34:00
12:55 PM,37.9,32.4,80,29.66,10.0,SW,15.0,21.9,N/A,,Overcast,230,2013-02-14 17:55:00
1:15 PM,37.6,32.7,83,29.66,10.0,WSW,11.5,16.1,N/A,,Overcast,240,2013-02-14 18:15:00
1:35 PM,37.4,32.4,82,29.66,10.0,SW,13.8,20.7,N/A,,Overcast,230,2013-02-14 18:35:00
1:54 PM,36.1,33.4,90,29.67,1.8,WSW,13.8,27.6,N/A,,Drizzle,240,2013-02-14 18:54:00
2:15 PM,35.8,33.1,90,29.67,3.0,WSW,13.8,24.2,N/A,Rain,Light Rain,240,2013-02-14 19:15:00
2:34 PM,37.0,33.4,87,29.67,7.0,WSW,11.5,25.3,N/A,,Light Drizzle,240,2013-02-14 19:34:00
2:55 PM,37.0,32.2,83,29.68,10.0,WSW,15.0,23.0,N/A,,Overcast,240,2013-02-14 19:55:00
3:15 PM,37.0,32.0,82,29.69,10.0,WSW,15.0,21.9,N/A,,Overcast,240,2013-02-14 20:15:00
3:35 PM,37.4,32.0,81,29.69,10.0,WSW,17.3,24.2,N/A,,Overcast,250,2013-02-14 20:35:00
3:55 PM,37.4,32.0,81,29.70,10.0,WSW,15.0,23.0,N/A,,Overcast,250,2013-02-14 20:55:00
4:14 PM,37.0,31.8,81,29.72,10.0,West,18.4,26.5,N/A,,Overcast,270,2013-02-14 21:14:00
4:35 PM,36.3,31.3,82,29.74,10.0,West,13.8,25.3,N/A,,Overcast,270,2013-02-14 21:35:00
4:54 PM,36.0,31.1,82,29.75,10.0,West,11.5,18.4,N/A,,Overcast,270,2013-02-14 21:54:00
5:15 PM,36.0,30.9,82,29.77,10.0,West,17.3,25.3,N/A,,Overcast,270,2013-02-14 22:15:00
5:35 PM,35.8,30.7,82,29.79,10.0,West,11.5,25.3,N/A,,Overcast,280,2013-02-14 22:35:00
5:55 PM,35.8,30.2,80,29.80,10.0,WNW,15.0,26.5,N/A,,Overcast,290,2013-02-14 22:55:00
6:14 PM,35.2,29.1,78,29.81,10.0,WNW,16.1,25.3,N/A,,Overcast,300,2013-02-14 23:14:00
6:35 PM,34.9,29.8,82,29.83,10.0,West,15.0,23.0,N/A,,Overcast,280,2013-02-14 23:35:00
6:54 PM,34.9,29.3,80,29.84,10.0,WNW,13.8,24.2,N/A,,Overcast,290,2013-02-14 23:54:00
7:15 PM,34.7,30.0,83,29.85,10.0,West,13.8,24.2,N/A,,Overcast,280,2013-02-15 00:15:00
7:35 PM,34.5,29.8,83,29.86,10.0,West,15.0,26.5,N/A,Snow,Light Snow,280,2013-02-15 00:35:00
7:55 PM,34.0,29.8,85,29.87,5.0,West,13.8,25.3,N/A,Snow,Light Snow,280,2013-02-15 00:55:00
8:14 PM,33.4,30.0,87,29.88,4.0,WNW,13.8,26.5,N/A,Snow,Light Snow,290,2013-02-15 01:14:00
8:35 PM,33.3,30.4,89,29.88,5.0,WNW,10.4,20.7,N/A,Snow,Light Snow,290,2013-02-15 01:35:00
8:55 PM,33.3,30.2,89,29.88,7.0,WNW,12.7,20.7,N/A,Snow,Light Snow,290,2013-02-15 01:55:00
9:15 PM,33.3,30.6,90,29.89,7.0,WNW,10.4,20.7,N/A,Snow,Light Snow,290,2013-02-15 02:15:00
9:35 PM,33.4,29.5,85,29.89,10.0,WNW,12.7,23.0,N/A,Snow,Light Snow,290,2013-02-15 02:35:00
9:55 PM,33.4,29.1,84,29.90,10.0,WNW,10.4,19.6,N/A,,Overcast,290,2013-02-15 02:55:00
10:15 PM,33.4,29.1,84,29.91,10.0,WNW,11.5,20.7,N/A,Snow,Light Snow,290,2013-02-15 03:15:00
10:35 PM,33.4,28.8,83,29.91,10.0,WNW,11.5,19.6,N/A,,Light Drizzle,290,2013-02-15 03:35:00
10:55 PM,33.8,28.2,80,29.91,10.0,WNW,12.7,19.6,N/A,,Overcast,300,2013-02-15 03:55:00
11:15 PM,33.8,27.7,78,29.92,10.0,WNW,10.4,20.7,N/A,,Overcast,300,2013-02-15 04:15:00
11:34 PM,33.8,27.3,77,29.92,10.0,WNW,13.8,19.6,N/A,,Overcast,300,2013-02-15 04:34:00
11:55 PM,33.8,27.3,77,29.92,10.0,WNW,11.5,17.3,N/A,,Overcast,300,2013-02-15 04:55:00